Location: Nied?wied?
(53.3665°N, 14.8184°E)
Time: 23:31:07
(UTC+00:00)

Cosmos 2242 Rocket - Pass Details

Date: 03 March 2021
Orbit: 617 x 652 km, 82.5° (Epoch: 12 April)

Event Time Altitude Azimuth Distance (km) Brightness Sun altitude
Rises 17:25:45 0° 353° (N) 2,969 7.1 -7.2°
Reaches altitude 10° 17:28:10 10° 2° (N) 2,049 6.2 -7.6°
Maximum altitude 17:32:24 37° 70° (ENE) 1,001 4.2 -8.2°
Drops below altitude 10° 17:36:33 10° 138° (SE) 2,014 5.8 -8.8°
Sets 17:38:54 0° 147° (SSE) 2,910 6.7 -9.2°
